Terminal Aerodrome Forecast
Issued by NWS Grand Junction, CO

Home | Current Version | Previous Version | Text Only | Print | Product List | Glossary On
Versions: 1 2 3 4 5 6 7 8 9 10 11 12 13 14 15 16 17 18 19 20 21 22 23 24 25 26 27 28
000
FTUS45 KGJT 041724
TAFGJT
TAF
KGJT 041724Z 0418/0518 28007KT P6SM VCSH SCT100 BKN200
      TEMPO 0419/0423 -RA BKN080
     FM042300 20009KT P6SM VCSH BKN090
     FM050200 11008KT P6SM BKN100
     FM051500 14006KT P6SM SCT120=

USA.gov is the U.S. government's official web portal to all federal, state and local government web resources and services.